TimeEST,TemperatureF,Dew PointF,Humidity,Sea Level PressureIn,VisibilityMPH,Wind Direction,Wind SpeedMPH,Gust SpeedMPH,PrecipitationIn,Events,Conditions,WindDirDegrees,DateUTC
12:15 AM,49.5,41.7,75,30.40,10.0,Calm,Calm,-,N/A,,Overcast,0,2013-11-22 05:15:00
12:35 AM,49.6,41.5,74,30.39,10.0,Calm,Calm,-,N/A,,Overcast,0,2013-11-22 05:35:00
12:55 AM,49.6,41.5,74,30.38,10.0,Calm,Calm,-,N/A,,Overcast,0,2013-11-22 05:55:00
1:15 AM,49.5,41.9,75,30.38,10.0,Calm,Calm,-,N/A,,Overcast,0,2013-11-22 06:15:00
1:35 AM,49.6,41.9,75,30.38,10.0,Calm,Calm,-,N/A,,Overcast,0,2013-11-22 06:35:00
1:55 AM,49.6,42.1,75,30.38,10.0,Calm,Calm,-,N/A,,Overcast,0,2013-11-22 06:55:00
2:15 AM,49.1,42.4,78,30.37,10.0,North,3.5,-,N/A,,Light Drizzle,10,2013-11-22 07:15:00
2:35 AM,49.1,43.2,80,30.37,7.0,North,3.5,-,N/A,Rain,Rain,10,2013-11-22 07:35:00
2:55 AM,48.2,43.9,85,30.37,7.0,NW,3.5,-,N/A,,Overcast,320,2013-11-22 07:55:00
3:15 AM,48.2,44.2,86,30.36,10.0,Calm,Calm,-,N/A,,Overcast,0,2013-11-22 08:15:00
3:35 AM,48.2,44.6,87,30.35,10.0,Calm,Calm,-,N/A,,Overcast,0,2013-11-22 08:35:00
3:55 AM,48.4,44.2,86,30.33,10.0,ENE,3.5,-,N/A,,Overcast,60,2013-11-22 08:55:00
4:15 AM,48.2,44.1,86,30.32,10.0,Calm,Calm,-,N/A,,Overcast,0,2013-11-22 09:15:00
4:35 AM,48.6,43.7,83,30.33,10.0,Calm,Calm,-,N/A,,Overcast,0,2013-11-22 09:35:00
4:55 AM,48.6,44.2,85,30.34,10.0,Calm,Calm,-,N/A,,Overcast,0,2013-11-22 09:55:00
5:15 AM,48.6,44.8,87,30.34,10.0,WNW,3.5,-,N/A,,Overcast,300,2013-11-22 10:15:00
5:35 AM,48.2,45.0,89,30.34,7.0,Calm,Calm,-,N/A,,Light Drizzle,0,2013-11-22 10:35:00
5:55 AM,48.2,45.1,89,30.34,10.0,Calm,Calm,-,N/A,,Overcast,0,2013-11-22 10:55:00
6:15 AM,48.2,45.5,90,30.33,10.0,Calm,Calm,-,N/A,,Overcast,0,2013-11-22 11:15:00
6:35 AM,48.2,45.9,92,30.33,10.0,Calm,Calm,-,N/A,,Overcast,0,2013-11-22 11:35:00
6:55 AM,48.2,45.9,92,30.32,10.0,Calm,Calm,-,N/A,,Overcast,0,2013-11-22 11:55:00
7:15 AM,48.2,45.7,91,30.32,10.0,Calm,Calm,-,N/A,,Overcast,0,2013-11-22 12:15:00
7:35 AM,48.4,45.5,90,30.31,10.0,Calm,Calm,-,N/A,,Overcast,0,2013-11-22 12:35:00
7:55 AM,49.1,45.9,89,30.32,10.0,Calm,Calm,-,N/A,,Overcast,0,2013-11-22 12:55:00
8:15 AM,49.6,45.9,87,30.32,10.0,Calm,Calm,-,N/A,,Overcast,0,2013-11-22 13:15:00
8:35 AM,50.0,46.4,87,30.31,10.0,Calm,Calm,-,N/A,,Overcast,0,2013-11-22 13:35:00
8:55 AM,50.2,46.4,87,30.32,10.0,Calm,Calm,-,N/A,,Overcast,0,2013-11-22 13:55:00
9:15 AM,50.7,46.8,86,30.32,10.0,Calm,Calm,-,N/A,,Overcast,0,2013-11-22 14:15:00
9:35 AM,51.1,47.3,87,30.33,10.0,Calm,Calm,-,N/A,,Overcast,0,2013-11-22 14:35:00
9:55 AM,51.6,47.5,86,30.32,10.0,Calm,Calm,-,N/A,,Overcast,0,2013-11-22 14:55:00
10:15 AM,52.2,48.2,86,30.32,10.0,Calm,Calm,-,N/A,,Overcast,0,2013-11-22 15:15:00
10:35 AM,52.3,48.7,88,30.31,7.0,SSW,3.5,-,N/A,,Overcast,200,2013-11-22 15:35:00
10:55 AM,53.2,49.6,88,30.30,7.0,SSW,4.6,-,N/A,,Overcast,200,2013-11-22 15:55:00
11:15 AM,54.1,50.2,86,30.29,7.0,SSW,4.6,-,N/A,,Overcast,200,2013-11-22 16:15:00
11:35 AM,56.1,51.3,84,30.29,10.0,WSW,5.8,-,N/A,,Overcast,240,2013-11-22 16:35:00
11:55 AM,56.5,51.6,84,30.27,10.0,South,4.6,-,N/A,,Overcast,190,2013-11-22 16:55:00
12:15 PM,58.3,52.7,82,30.26,10.0,South,4.6,-,N/A,,Overcast,190,2013-11-22 17:15:00
12:35 PM,59.2,53.6,82,30.25,10.0,SW,8.1,-,N/A,,Overcast,220,2013-11-22 17:35:00
12:55 PM,61.0,54.5,79,30.24,10.0,SSW,9.2,-,N/A,,Overcast,210,2013-11-22 17:55:00
1:15 PM,62.2,55.6,79,30.23,10.0,SSW,8.1,-,N/A,,Overcast,200,2013-11-22 18:15:00
1:35 PM,62.1,55.2,78,30.22,10.0,SSW,6.9,-,N/A,,Overcast,210,2013-11-22 18:35:00
1:55 PM,62.2,55.4,78,30.21,10.0,SW,5.8,-,N/A,,Overcast,230,2013-11-22 18:55:00
2:15 PM,62.6,55.8,78,30.20,10.0,SSW,8.1,-,N/A,,Overcast,210,2013-11-22 19:15:00
2:35 PM,62.2,55.8,79,30.20,10.0,SW,9.2,-,N/A,,Overcast,230,2013-11-22 19:35:00
2:55 PM,62.1,55.8,80,30.19,10.0,SW,8.1,-,N/A,,Overcast,230,2013-11-22 19:55:00
3:15 PM,61.9,55.8,80,30.18,10.0,SW,5.8,-,N/A,,Overcast,220,2013-11-22 20:15:00
3:35 PM,61.9,55.9,81,30.18,10.0,SSW,6.9,-,N/A,,Overcast,210,2013-11-22 20:35:00
3:55 PM,61.2,55.9,83,30.18,10.0,SW,5.8,-,N/A,,Overcast,220,2013-11-22 20:55:00
4:15 PM,61.2,55.9,83,30.17,10.0,SW,5.8,-,N/A,,Overcast,220,2013-11-22 21:15:00
4:35 PM,60.8,55.8,83,30.17,10.0,WSW,5.8,-,N/A,,Overcast,240,2013-11-22 21:35:00
4:55 PM,60.8,55.8,83,30.16,10.0,SSW,3.5,-,N/A,,Overcast,210,2013-11-22 21:55:00
5:15 PM,60.3,55.8,85,30.16,10.0,WSW,4.6,-,N/A,,Overcast,250,2013-11-22 22:15:00
5:35 PM,60.1,55.6,85,30.17,10.0,WSW,4.6,-,N/A,,Overcast,240,2013-11-22 22:35:00
5:55 PM,59.9,55.8,86,30.16,10.0,SW,4.6,-,N/A,,Overcast,220,2013-11-22 22:55:00
6:15 PM,59.9,55.8,86,30.15,10.0,SW,3.5,-,N/A,,Overcast,220,2013-11-22 23:15:00
6:35 PM,59.5,56.3,89,30.15,10.0,SW,4.6,-,N/A,,Light Drizzle,220,2013-11-22 23:35:00
6:55 PM,59.2,56.3,90,30.15,10.0,SW,3.5,-,N/A,,Overcast,220,2013-11-22 23:55:00
7:15 PM,59.0,56.3,91,30.14,10.0,Calm,Calm,-,N/A,,Overcast,0,2013-11-23 00:15:00
7:35 PM,59.0,56.3,91,30.14,10.0,SSW,3.5,-,N/A,,Overcast,210,2013-11-23 00:35:00
7:55 PM,59.0,56.3,91,30.13,10.0,Calm,Calm,-,N/A,,Overcast,0,2013-11-23 00:55:00
8:15 PM,59.0,56.3,91,30.13,10.0,SW,3.5,-,N/A,,Overcast,220,2013-11-23 01:15:00
8:35 PM,58.6,56.3,92,30.13,10.0,SSW,4.6,-,N/A,,Overcast,210,2013-11-23 01:35:00
8:55 PM,59.0,56.3,91,30.12,10.0,SW,4.6,-,N/A,,Overcast,220,2013-11-23 01:55:00
9:15 PM,59.0,56.3,91,30.12,10.0,SW,8.1,-,N/A,,Overcast,220,2013-11-23 02:15:00
9:35 PM,59.0,56.3,91,30.12,7.0,WSW,4.6,-,N/A,,Overcast,250,2013-11-23 02:35:00
9:55 PM,59.0,56.3,91,30.12,7.0,WSW,4.6,-,N/A,,Overcast,240,2013-11-23 02:55:00
10:15 PM,58.6,56.3,92,30.12,7.0,WSW,4.6,-,N/A,,Overcast,240,2013-11-23 03:15:00
10:35 PM,58.5,56.3,93,30.12,7.0,WSW,3.5,-,N/A,,Overcast,240,2013-11-23 03:35:00
10:55 PM,58.3,56.3,93,30.11,7.0,WSW,4.6,-,N/A,,Overcast,250,2013-11-23 03:55:00
11:15 PM,58.3,56.3,93,30.11,7.0,SW,3.5,-,N/A,,Overcast,230,2013-11-23 04:15:00
11:35 PM,58.1,56.3,94,30.11,7.0,SW,3.5,-,N/A,,Overcast,220,2013-11-23 04:35:00
11:55 PM,58.1,56.1,93,30.10,7.0,SW,3.5,-,N/A,,Overcast,220,2013-11-23 04:55:00